TimeEST,TemperatureF,Dew PointF,Humidity,Sea Level PressureIn,VisibilityMPH,Wind Direction,Wind SpeedMPH,Gust SpeedMPH,PrecipitationIn,Events,Conditions,WindDirDegrees,DateUTC
12:02 AM,30.2,21.2,69,30.32,10.0,WSW,4.6,-,N/A,,Overcast,250,2013-01-04 05:02:00
12:53 AM,32.0,23.0,69,30.34,10.0,Variable,4.6,-,N/A,,Overcast,0,2013-01-04 05:53:00
1:53 AM,32.0,23.0,69,30.33,10.0,WSW,9.2,17.3,N/A,,Overcast,250,2013-01-04 06:53:00
2:53 AM,30.9,24.1,76,30.34,9.0,West,10.4,-,N/A,,Overcast,260,2013-01-04 07:53:00
3:53 AM,30.9,21.9,69,30.34,10.0,West,15.0,20.7,N/A,,Overcast,260,2013-01-04 08:53:00
4:53 AM,30.9,19.9,64,30.34,10.0,WNW,10.4,16.1,N/A,,Overcast,290,2013-01-04 09:53:00
5:20 AM,30.2,19.4,64,30.32,10.0,West,9.2,-,N/A,,Scattered Clouds,260,2013-01-04 10:20:00
5:53 AM,30.0,19.9,66,30.35,10.0,West,5.8,-,N/A,,Mostly Cloudy,260,2013-01-04 10:53:00
7:53 AM,27.0,19.0,72,30.36,10.0,West,6.9,-,N/A,,Partly Cloudy,260,2013-01-04 12:53:00
8:53 AM,28.0,19.0,69,30.36,10.0,West,4.6,-,N/A,,Clear,260,2013-01-04 13:53:00
9:22 AM,28.4,19.4,69,30.34,10.0,Calm,Calm,-,N/A,,Mostly Cloudy,0,2013-01-04 14:22:00
9:53 AM,32.0,21.0,64,30.37,10.0,West,3.5,-,N/A,,Mostly Cloudy,270,2013-01-04 14:53:00
10:04 AM,33.8,21.2,60,30.35,10.0,WSW,6.9,-,N/A,,Scattered Clouds,250,2013-01-04 15:04:00
10:20 AM,33.8,21.2,60,30.35,10.0,West,6.9,16.1,N/A,,Mostly Cloudy,260,2013-01-04 15:20:00
10:53 AM,34.0,21.9,61,30.38,10.0,West,9.2,-,N/A,,Scattered Clouds,260,2013-01-04 15:53:00
11:53 AM,34.0,21.9,61,30.38,10.0,West,11.5,17.3,N/A,,Scattered Clouds,270,2013-01-04 16:53:00
12:53 PM,35.1,19.9,54,30.35,10.0,West,10.4,16.1,N/A,,Clear,270,2013-01-04 17:53:00
1:53 PM,35.1,19.0,52,30.33,10.0,West,11.5,17.3,N/A,,Clear,260,2013-01-04 18:53:00
2:53 PM,36.0,19.9,52,30.33,10.0,West,10.4,18.4,N/A,,Clear,280,2013-01-04 19:53:00
3:53 PM,36.0,19.0,50,30.34,10.0,WSW,11.5,19.6,N/A,,Clear,250,2013-01-04 20:53:00
4:53 PM,34.0,19.0,54,30.35,10.0,West,10.4,-,N/A,,Clear,260,2013-01-04 21:53:00
5:53 PM,32.0,18.0,56,30.36,10.0,West,5.8,-,N/A,,Clear,260,2013-01-04 22:53:00
7:53 PM,30.0,18.0,61,30.37,10.0,WSW,5.8,-,N/A,,Clear,240,2013-01-05 00:53:00
8:53 PM,28.9,19.9,69,30.37,10.0,WSW,8.1,-,N/A,,Clear,250,2013-01-05 01:53:00
9:53 PM,28.9,19.9,69,30.36,10.0,SW,3.5,-,N/A,,Clear,230,2013-01-05 02:53:00
10:53 PM,27.0,19.0,72,30.37,10.0,Calm,Calm,-,N/A,,Clear,0,2013-01-05 03:53:00
11:53 PM,23.0,18.0,81,30.39,10.0,WSW,3.5,-,N/A,,Clear,240,2013-01-05 04:53:00